�������l�o���
Date,Time,MP-1(��Sv/h),MP-2(��Sv/h),MP-3(��Sv/h),MP-4(��Sv/h),MP-5(��Sv/h),MP-6(��Sv/h),MP-7(��Sv/h),����,����(m/s),���J
2016/10/26,00:00,0.416,0.252,0.434,0.396,0.371,0.204,0.175,��,10.8,�L
2016/10/26,00:10,0.420,0.250,0.434,0.397,0.368,0.204,0.175,��,10.4,�L
2016/10/26,00:20,0.417,0.253,0.432,0.396,0.372,0.204,0.175,��,12.1,�L
2016/10/26,00:30,0.418,0.250,0.433,0.396,0.369,0.204,0.176,��,11.2,��
2016/10/26,00:40,0.417,0.252,0.433,0.394,0.372,0.204,0.176,��,11.0,��
2016/10/26,00:50,0.420,0.251,0.433,0.399,0.369,0.203,0.176,��,9.2,��
2016/10/26,01:00,0.416,0.251,0.433,0.395,0.371,0.204,0.176,��,8.6,��
2016/10/26,01:10,0.418,0.249,0.432,0.397,0.368,0.203,0.175,��,8.7,��
2016/10/26,01:20,0.416,0.252,0.434,0.396,0.372,0.205,0.175,��,8.6,��
2016/10/26,01:30,0.417,0.250,0.432,0.396,0.367,0.203,0.176,��,7.7,��
2016/10/26,01:40,0.417,0.251,0.433,0.393,0.370,0.203,0.176,��,8.4,��
2016/10/26,01:50,0.417,0.249,0.431,0.396,0.369,0.205,0.174,��,7.5,��
2016/10/26,02:00,0.417,0.251,0.434,0.394,0.371,0.203,0.175,��,7.5,��
2016/10/26,02:10,0.416,0.251,0.430,0.396,0.370,0.203,0.174,��,7.3,��
2016/10/26,02:20,0.419,0.251,0.435,0.394,0.369,0.203,0.176,��,6.8,��
2016/10/26,02:30,0.416,0.251,0.431,0.397,0.369,0.204,0.175,��,8.6,��
2016/10/26,02:40,0.417,0.251,0.433,0.396,0.369,0.203,0.176,��,7.5,��
2016/10/26,02:50,0.415,0.251,0.432,0.396,0.368,0.204,0.175,��,9.7,��
2016/10/26,03:00,0.418,0.250,0.433,0.397,0.371,0.203,0.175,��,8.6,��
2016/10/26,03:10,0.416,0.252,0.435,0.395,0.370,0.203,0.175,��,8.9,��
2016/10/26,03:20,0.418,0.251,0.432,0.397,0.370,0.206,0.175,��,8.9,��
2016/10/26,03:30,0.415,0.251,0.433,0.395,0.370,0.202,0.174,��,9.5,��
2016/10/26,03:40,0.419,0.251,0.431,0.397,0.370,0.205,0.175,��,8.1,��
2016/10/26,03:50,0.417,0.250,0.434,0.393,0.371,0.203,0.176,��쐼,7.8,��
2016/10/26,04:00,0.420,0.251,0.431,0.399,0.368,0.205,0.175,��쐼,7.4,��
2016/10/26,04:10,0.417,0.251,0.432,0.395,0.371,0.203,0.176,��쐼,5.2,��
2016/10/26,04:20,0.420,0.252,0.432,0.397,0.370,0.205,0.176,��쐼,5.0,��
2016/10/26,04:30,0.417,0.252,0.433,0.395,0.370,0.204,0.175,��쐼,5.7,��
2016/10/26,04:40,0.418,0.252,0.432,0.398,0.371,0.204,0.176,�쐼,7.3,��
2016/10/26,04:50,0.417,0.252,0.433,0.394,0.370,0.203,0.175,��쐼,6.7,��
2016/10/26,05:00,0.418,0.252,0.432,0.397,0.370,0.203,0.176,�쐼,7.5,��
2016/10/26,05:10,0.416,0.251,0.433,0.396,0.369,0.204,0.175,�쐼,7.3,��
2016/10/26,05:20,0.418,0.253,0.431,0.400,0.371,0.203,0.175,�쐼,8.1,��
2016/10/26,05:30,0.416,0.250,0.433,0.396,0.368,0.204,0.174,�쐼,8.8,��
2016/10/26,05:40,0.420,0.252,0.432,0.398,0.372,0.204,0.175,�쐼,6.9,��
2016/10/26,05:50,0.415,0.251,0.434,0.395,0.368,0.205,0.175,�쐼,7.5,��
2016/10/26,06:00,0.421,0.251,0.432,0.396,0.371,0.204,0.175,�쐼,6.9,��
2016/10/26,06:10,0.418,0.252,0.434,0.395,0.370,0.205,0.176,�쐼,5.9,��
2016/10/26,06:20,0.420,0.252,0.430,0.397,0.371,0.203,0.175,�쐼,4.1,��
2016/10/26,06:30,0.417,0.252,0.435,0.395,0.369,0.204,0.175,�쐼,2.9,��
2016/10/26,06:40,0.419,0.251,0.432,0.397,0.371,0.203,0.176,�쐼,5.0,��
2016/10/26,06:50,0.417,0.252,0.434,0.393,0.369,0.203,0.176,�쐼,6.1,��
2016/10/26,07:00,0.419,0.252,0.432,0.396,0.371,0.204,0.175,�쐼,4.9,��
2016/10/26,07:10,0.416,0.251,0.436,0.395,0.368,0.205,0.173,�쐼,5.9,��
2016/10/26,07:20,0.419,0.252,0.431,0.397,0.371,0.204,0.176,�쐼,5.6,��
2016/10/26,07:30,0.417,0.252,0.435,0.397,0.369,0.204,0.176,���쐼,5.6,��
2016/10/26,07:40,0.419,0.252,0.432,0.392,0.371,0.205,0.174,�쐼,2.8,��
2016/10/26,07:50,0.416,0.252,0.433,0.396,0.370,0.203,0.174,�쐼,3.0,��
2016/10/26,08:00,0.418,0.251,0.432,0.393,0.369,0.204,0.175,��,3.1,��
2016/10/26,08:10,0.416,0.250,0.431,0.392,0.372,0.204,0.175,��,4.9,��
2016/10/26,08:20,0.417,0.252,0.432,0.395,0.367,0.203,0.175,��,5.0,��
2016/10/26,08:30,0.419,0.251,0.430,0.397,0.371,0.203,0.174,��,5.2,��
2016/10/26,08:40,0.416,0.251,0.433,0.392,0.368,0.202,0.173,��,5.0,��
2016/10/26,08:50,0.419,0.252,0.430,0.390,0.368,0.204,0.172,��,6.0,��
2016/10/26,09:00,0.416,0.251,0.433,0.398,0.372,0.205,0.173,��,6.1,��
2016/10/26,09:10,0.416,0.250,0.433,0.395,0.368,0.203,0.173,��,5.3,��
2016/10/26,09:20,0.418,0.248,0.431,0.394,0.369,0.204,0.174,��쐼,4.2,��
2016/10/26,09:30,0.415,0.249,0.433,0.392,0.372,0.204,0.173,��쐼,3.5,��
2016/10/26,09:40,0.415,0.249,0.432,0.391,0.370,0.204,0.174,�쐼,5.1,��
2016/10/26,09:50,0.414,0.249,0.432,0.391,0.369,0.202,0.174,�쐼,6.1,��
2016/10/26,10:00,0.413,0.250,0.434,0.391,0.367,0.203,0.174,���쐼,5.3,��
2016/10/26,10:10,0.413,0.251,0.428,0.394,0.367,0.203,0.174,��,5.0,��
2016/10/26,10:20,0.413,0.250,0.433,0.391,0.366,0.203,0.174,���k��,4.5,��
2016/10/26,10:30,0.417,0.251,0.434,0.393,0.368,0.204,0.175,���k��,8.3,��
2016/10/26,10:40,0.415,0.250,0.431,0.393,0.366,0.203,0.174,���k��,8.9,��
2016/10/26,10:50,0.414,0.250,0.429,0.393,0.366,0.204,0.175,���k��,8.7,��
2016/10/26,11:00,0.416,0.251,0.436,0.395,0.365,0.204,0.175,�k��,7.0,��
2016/10/26,11:10,0.415,0.251,0.434,0.394,0.369,0.204,0.174,�k��,5.0,��
2016/10/26,11:20,0.415,0.251,0.430,0.396,0.370,0.203,0.175,���k��,4.5,��
2016/10/26,11:30,0.415,0.251,0.428,0.395,0.369,0.204,0.176,��쐼,2.8,��
2016/10/26,11:40,0.414,0.252,0.433,0.395,0.370,0.204,0.174,��,4.2,��
2016/10/26,11:50,0.417,0.250,0.437,0.396,0.370,0.204,0.174,��,5.4,��
2016/10/26,12:00,0.415,0.251,0.434,0.396,0.369,0.206,0.173,��,5.1,��
2016/10/26,12:10,0.414,0.250,0.430,0.395,0.370,0.206,0.174,��,4.6,��
2016/10/26,12:20,0.419,0.250,0.430,0.395,0.367,0.205,0.175,��,4.2,��
2016/10/26,12:30,0.421,0.251,0.429,0.394,0.368,0.204,0.176,��,4.1,��
2016/10/26,12:40,0.420,0.250,0.429,0.394,0.368,0.203,0.176,��,3.6,��
2016/10/26,12:50,0.415,0.250,0.429,0.394,0.371,0.204,0.176,��쐼,2.6,��
2016/10/26,13:00,0.418,0.250,0.430,0.394,0.369,0.206,0.175,��,2.5,��
2016/10/26,13:10,0.422,0.251,0.429,0.394,0.368,0.205,0.174,��쓌,2.2,��
2016/10/26,13:20,0.421,0.251,0.432,0.396,0.370,0.205,0.174,��쐼,2.5,��
2016/10/26,13:30,0.417,0.251,0.431,0.396,0.367,0.204,0.174,���k��,2.2,��
2016/10/26,13:40,0.414,0.251,0.431,0.395,0.370,0.204,0.173,���k��,5.3,��
2016/10/26,13:50,0.414,0.252,0.433,0.396,0.369,0.204,0.174,�k��,4.8,��
2016/10/26,14:00,0.417,0.253,0.431,0.396,0.370,0.205,0.176,���k��,2.8,��
2016/10/26,14:10,0.423,0.253,0.431,0.395,0.368,0.205,0.176,�k��,4.4,��
2016/10/26,14:20,0.419,0.251,0.429,0.393,0.368,0.205,0.175,�k��,2.5,��
2016/10/26,14:30,0.416,0.252,0.436,0.393,0.368,0.206,0.173,�k��,2.2,��
2016/10/26,14:40,0.420,0.251,0.434,0.399,0.368,0.205,0.176,�k��,3.1,��
2016/10/26,14:50,0.420,0.253,0.431,0.399,0.367,0.204,0.176,�k��,3.0,��
2016/10/26,15:00,0.419,0.254,0.431,0.397,0.370,0.205,0.174,�k��,3.1,��
2016/10/26,15:10,0.416,0.252,0.436,0.394,0.372,0.205,0.176,���k��,1.8,��
2016/10/26,15:20,0.421,0.251,0.435,0.398,0.370,0.204,0.175,���쐼,1.5,��
2016/10/26,15:30,0.418,0.254,0.429,0.397,0.367,0.205,0.174,���쐼,1.4,��
2016/10/26,15:40,0.417,0.252,0.434,0.394,0.370,0.204,0.177,��,1.4,��
2016/10/26,15:50,0.420,0.252,0.437,0.397,0.373,0.203,0.175,���k��,1.3,��
2016/10/26,16:00,0.418,0.254,0.433,0.399,0.368,0.203,0.175,�k,2.8,��
2016/10/26,16:10,0.419,0.253,0.435,0.396,0.368,0.204,0.176,�k�k��,3.5,��
2016/10/26,16:20,0.420,0.252,0.434,0.397,0.373,0.203,0.176,�k�k��,3.3,��
2016/10/26,16:30,0.417,0.254,0.434,0.398,0.370,0.204,0.175,�k�k��,1.8,��
2016/10/26,16:40,0.419,0.252,0.434,0.395,0.371,0.204,0.175,�k�k��,1.0,��
2016/10/26,16:50,0.418,0.254,0.434,0.399,0.373,0.202,0.175,��쓌,0.8,��
2016/10/26,17:00,0.416,0.252,0.432,0.396,0.368,0.205,0.176,�쓌,0.7,��
2016/10/26,17:10,0.420,0.255,0.436,0.396,0.372,0.204,0.175,�쓌,1.3,��
2016/10/26,17:20,0.417,0.252,0.434,0.398,0.369,0.204,0.176,��쓌,0.6,��
2016/10/26,17:30,0.421,0.253,0.436,0.397,0.372,0.204,0.176,��쓌,1.4,��
2016/10/26,17:40,0.417,0.253,0.435,0.399,0.370,0.204,0.176,�k�k��,0.6,��
2016/10/26,17:50,0.420,0.253,0.434,0.395,0.370,0.204,0.175,�k,1.5,��
2016/10/26,18:00,0.417,0.252,0.437,0.399,0.371,0.204,0.176,�k�k��,2.1,��
2016/10/26,18:10,0.419,0.252,0.432,0.395,0.371,0.204,0.176,�k�k��,3.0,��
2016/10/26,18:20,0.420,0.253,0.435,0.398,0.371,0.204,0.176,�k�k��,5.2,��
2016/10/26,18:30,0.419,0.252,0.433,0.398,0.370,0.204,0.175,�k�k��,5.0,��
2016/10/26,18:40,0.419,0.253,0.436,0.397,0.372,0.204,0.177,�k�k��,5.0,��
2016/10/26,18:50,0.419,0.253,0.432,0.397,0.369,0.204,0.175,�k,5.4,��
2016/10/26,19:00,0.419,0.252,0.436,0.397,0.372,0.204,0.176,�k,5.3,��
2016/10/26,19:10,0.418,0.253,0.433,0.398,0.369,0.205,0.176,�k,6.1,��
2016/10/26,19:20,0.419,0.253,0.435,0.396,0.372,0.203,0.176,�k,6.3,��
2016/10/26,19:30,0.416,0.252,0.433,0.399,0.369,0.205,0.176,�k,6.3,��
2016/10/26,19:40,0.420,0.254,0.436,0.396,0.371,0.205,0.176,�k�k��,6.5,��
2016/10/26,19:50,0.417,0.252,0.435,0.398,0.372,0.204,0.176,�k�k��,6.7,��
2016/10/26,20:00,0.419,0.253,0.434,0.395,0.369,0.204,0.177,�k�k��,5.6,��
2016/10/26,20:10,0.418,0.253,0.436,0.399,0.372,0.204,0.176,�k�k��,5.5,��
2016/10/26,20:20,0.419,0.253,0.433,0.396,0.369,0.204,0.175,�k��,3.3,��
2016/10/26,20:30,0.420,0.253,0.436,0.398,0.373,0.203,0.175,�k�k��,3.4,��
2016/10/26,20:40,0.418,0.253,0.432,0.394,0.368,0.205,0.177,�k�k��,3.6,��
2016/10/26,20:50,0.420,0.253,0.437,0.396,0.373,0.204,0.175,�k�k��,3.2,��
2016/10/26,21:00,0.419,0.254,0.433,0.396,0.369,0.205,0.176,�k,2.5,��
2016/10/26,21:10,0.418,0.252,0.437,0.398,0.373,0.205,0.176,�k,1.9,��
2016/10/26,21:20,0.420,0.253,0.433,0.397,0.370,0.204,0.177,�k�k��,1.0,��
2016/10/26,21:30,0.420,0.252,0.435,0.398,0.372,0.204,0.175,�k,1.0,��
2016/10/26,21:40,0.418,0.253,0.435,0.399,0.370,0.204,0.176,�k�k��,1.0,��
2016/10/26,21:50,0.418,0.251,0.437,0.396,0.372,0.204,0.176,�k�k��,1.0,��
2016/10/26,22:00,0.418,0.254,0.434,0.398,0.371,0.204,0.176,�k,1.0,��
2016/10/26,22:10,0.419,0.252,0.436,0.396,0.371,0.203,0.176,�k�k��,0.8,��
2016/10/26,22:20,0.419,0.253,0.434,0.398,0.370,0.205,0.176,�k�k��,1.4,��
2016/10/26,22:30,0.419,0.253,0.435,0.395,0.369,0.204,0.175,�k��,1.3,��
2016/10/26,22:40,0.418,0.253,0.435,0.398,0.372,0.205,0.177,�k��,1.0,��
2016/10/26,22:50,0.420,0.253,0.433,0.396,0.369,0.204,0.177,-,CALM,�L
2016/10/26,23:00,0.417,0.253,0.436,0.401,0.372,0.204,0.176,�k,1.8,�L
2016/10/26,23:10,0.422,0.252,0.434,0.396,0.370,0.204,0.175,�k,3.9,�L
2016/10/26,23:20,0.418,0.254,0.436,0.400,0.372,0.204,0.177,�k,5.5,��
2016/10/26,23:30,0.422,0.252,0.435,0.395,0.370,0.205,0.176,�k,5.0,��
2016/10/26,23:40,0.415,0.254,0.437,0.400,0.373,0.205,0.176,�k,5.6,��
2016/10/26,23:50,0.421,0.251,0.434,0.397,0.370,0.205,0.175,�k,7.9,��
